ATLAS 5 CENTAUR DEB, 46667

Orbit data source: Space-Track

ATLAS 5 CENTAUR DEB, 46667 is space debris in HEO originally from a launch on Wed, 17 Oct 2018 UTC launched from the Air Force Eastern Test Range (AFETR). Debris objects in space refer to the collection of defunct objects orbiting the Earth. Examples of debris include non-operational satellites, rocket bodies, and fragments generated from explosions, collisions, or faulty payload assembly.

Loading next visibility...
Identifier
46667, 2018-079CV
Orbit
HEO
Country
Flag of USUS
Related business
Flag of USUnited Launch Alliance/Lockheed Martin (US)
Manufacturer
ULA Decatur
Mission
Spacecraft
Bus & Motor
Unknown
Mass
Unknown
Launch date (UTC)
2018-10-17 (7 years ago)
Launch vehicle
Unknown
Launch site
Air Force Eastern Test Range (AFETR)
Object type
Payload
Rocket body
Debris
Shape & HBR
Unknown shape, 1.1 m
Radar Cross Section
RCS unknown

Expand to show TLE details & history
Last TLE update: 2 weeks ago

TLE from 2 weeks ago
0 ATLAS 5 CENTAUR DEB
1 46667U 18079CV  25281.44632839 -.00000119  00000-0  00000-0 0  9993
2 46667  13.3261  29.1969 4507050 329.5466  10.6813  1.95339416 35658
Epoch: 2025-10-08T10:42Z
TLE epoch observation values (Epoch: 2025-10-08T10:42:42.772Z)
Latitude
-0°
Longitude
-148.81041°
Altitude
9,105.332 km
Speed
6.061 km/s
True Right ascension
01h 56m 45s
True Declination
0° 00' 00"
Sunlit
Object was in full shadow at epoch
Visualization orbit readout
Latitude
Unknown
Longitude
Unknown
Altitude
Unknown
Speed
Unknown
Apparent Right ascension
Unknown
Apparent Declination
Unknown
Sunlit
N/A
Visualization observer readout
Local Sidereal Time
11:38:05
Azimuth
Unknown
Elevation
Unknown
Doppler factor
Unknown
Orbital elements
Apogee altitude
32,840.138 km
Perigee altitude
8,471.472 km
Semi-major axis
27,033.942 km
Eccentricity
0.45071
Inclination
13.3261°
RAAN
29.1969°
Arg. of periapsis
329.5466°
True anomaly
30.66763°
Mean anomaly
10.6813°
Eccentric anomaly
19.15436°
Mean motion
0.48829 °/min
Orbital period
737.26 mins
BSTAR
0
Loading maneuver chart data...
Computing Atmospheric mass density...

Documentation

Showing up to 5 results
|